To NAV CANADA Home Page Login to a new session Search on AWWS site Disclaimer Vers la page française équivalente Tips FAQ What's new on the site To the Forecasts and Observations / NOTAM section To "File a Flight Plan" website Publications and other links Update of the User's profile FIC Telephone Numbers My Weather Data Folder Route Weather Data Regional Weather Data Local Weather Data To the Forecasts and Observations / NOTAM section
Request Generated 03/19/2019 at 23:35:53 UTC . Weather information available at that time is displayed.

METAR/TAF

AUPALUK/QC    

LWIS CYLA 192300Z AUTO 21012KT M17/M20 A2973=
LWIS CYLA 192200Z AUTO 21011KT M17/M20 A2976=
METAR CYLA 192100Z 22012KT 6SM -SN BKN035 OVC057 M17/M21 A2979 RMK SN2SC3SC3 SN CVR/ONE LOOSE LAST STFD OBS/NEXT 201200UTC SLP093=

CYLA - No TAF is issued for this station

Your time UTC time
Weather data provided by Environment Canada and NAV CANADA